Location: Bratislava
(48.1500°N, 17.1170°E)
Time: 02:42:46
(UTC+02:00)

ISS - Pass Details

Date: 31 March 2019
Orbit: 408 x 410 km, 51.6° (Epoch: 26 April)

Event Time Altitude Azimuth Distance (km) Brightness Sun altitude
Rises 20:59:54 0° 289° (WNW) 2,339 1.8 -16.7°
Reaches altitude 10° 21:02:01 10° 294° (WNW) 1,476 0.3 -17.0°
Maximum altitude 21:05:17 55° 13° (NNE) 500 -3.4 -17.5°
Enters shadow 21:06:03 42° 63° (ENE) 596 -3.3 -17.6°
